Vorticity
9 -3 6 6 7 -0 -11 -1 6 2 -4 0 13 15 11 9 5 2 -0 4 6 2 11 17 21 13 10 -6 -1 0 -1 -2 -0 3 5 3 -1 12 9 6 4 5 2 20
5 -1 2 3 8 11 10 6 8 12 20 19 14 9 -2 4 12 11 9 8 7 8 10 12 14 14 25 13 6 2 4 2 1 1 3 3 3 10 10 3 2 11 7 13
-4 -2 31 7 7 9 6 6 7 4 2 8 14 35 66 36 31 37 33 27 29 31 12 8 14 13 19 17 14 11 4 1 1 3 2 0 3 8 13 6 8 10 5 8
14 -2 2 13 5 5 4 12 13 13 14 5 -5 -10 13 3 -5 4 18 14 19 33 12 32 17 10 13 17 14 21 10 5 5 3 3 2 3 16 9 6 7 11 2 -0
6 16 14 8 8 11 11 8 9 7 7 14 29 8 -9 -0 10 9 4 18 0 15 17 11 20 27 13 10 16 12 20 11 5 2 2 6 7 11 5 4 7 17 4 4
-7 12 2 11 6 12 -7 15 4 10 12 29 37 -18 20 30 33 36 35 28 -6 8 6 21 12 11 17 14 10 6 15 16 12 6 8 9 10 9 5 8 17 17 12 15
23 6 3 5 5 3 9 -1 15 14 10 -3 -23 41 -54 -50 -24 -24 -1 -1 -1 4 1 12 8 26 14 20 14 6 14 12 11 11 11 6 11 5 7 13 17 11 9 7
11 20 22 17 12 3 18 0 -19 12 2 -11 -40 18 -15 8 2 12 30 24 -6 19 15 9 18 6 20 20 17 16 18 8 12 15 7 3 13 7 10 11 11 9 11 5
9 11 24 5 8 -4 33 16 11 -11 32 38 13 4 3 4 42 62 11 7 17 12 12 19 14 36 8 21 10 23 18 12 9 14 5 11 9 7 14 14 9 5 5 16
14 1 19 10 1 9 -21 22 9 8 11 7 12 -2 -23 -19 3 2 23 17 6 5 3 6 14 17 24 18 16 22 19 17 11 10 4 10 6 11 12 14 8 6 16 -3
10 3 12 6 23 22 25 0 -1 -1 -12 -8 17 -3 -11 5 8 13 25 -2 -1 7 3 -9 11 20 33 11 21 15 17 16 10 6 10 7 7 11 9 17 6 14 -0 3
-5 5 7 -7 -2 16 9 5 7 -25 17 5 5 -19 -9 11 15 22 -9 -3 3 9 -2 -3 19 2 34 12 24 12 24 16 7 7 8 6 7 11 17 8 25 -17 13 11
16 10 9 20 28 30 5 10 15 8 -1 1 -10 -26 -78 -9 38 7 9 -1 -2 -8 12 12 23 14 32 19 18 17 20 12 8 9 6 6 6 13 11 22 0 -15 8 17
5 6 -18 -26 -19 -30 -9 2 4 10 -0 8 -1 -3 6 27 26 5 1 -9 10 -8 6 -16 18 26 31 15 14 19 16 8 8 11 6 7 8 12 22 10 -1 16 14 5
6 1 6 6 2 3 22 16 11 26 12 8 -12 10 26 21 1 19 15 23 13 9 14 14 10 34 28 12 16 16 14 6 9 8 8 8 8 11 9 10 0 5 8 5
10 -1 -5 3 47 11 -5 31 44 45 29 19 13 11 51 32 42 24 20 18 10 8 9 12 10 33 26 10 21 14 7 8 9 8 7 6 7 8 3 5 17 8 -2 5
5 11 -4 33 -26 31 54 -14 28 25 37 27 14 18 10 14 7 3 1 10 11 19 13 9 25 26 19 21 20 14 8 9 6 4 1 10 24 -7 -5 4 10 8 8 6
-11 13 16 -5 33 18 -24 5 11 19 6 -2 40 47 18 16 27 23 28 25 17 13 6 10 32 23 8 9 17 11 11 10 9 20 -15 26 20 4 6 11 9 6 7 4
22 -5 4 1 -5 -9 29 -8 9 12 12 4 13 25 31 29 31 24 27 32 37 35 23 28 29 21 12 14 17 14 16 8 8 12 8 -3 5 15 12 6 5 7 4 7
27 9 -16 2 9 7 -16 0 17 23 16 9 19 8 24 14 18 42 25 22 23 22 26 26 18 31 26 15 8 7 6 10 21 -3 4 11 5 4 8 7 6 7 10 5
8 31 -0 3 -5 11 9 -15 24 9 -31 21 18 11 6 7 9 14 18 17 26 34 37 28 20 8 4 5 11 14 11 5 10 13 13 10 7 6 7 8 8 5 8 9
4 10 15 30 7 17 -23 21 18 -5 16 22 -2 11 -7 1 12 16 6 8 5 6 10 7 7 4 5 8 12 12 10 8 8 7 5 5 7 6 9 6 7 8 8 10
11 -9 8 -8 6 -9 6 17 10 10 14 27 24 -0 50 3 45 7 10 9 9 4 5 6 8 9 6 5 3 7 10 8 7 9 5 6 10 6 7 8 8 10 11 9
19 5 -6 7 5 6 12 18 11 11 16 20 17 3 3 6 2 1 7 18 -3 8 9 7 8 9 11 10 10 7 8 5 3 7 9 6 6 9 8 10 11 10 7 6
1 5 17 8 14 5 2 16 13 11 8 13 25 6 -2 6 6 4 9 8 14 5 6 8 9 10 10 10 10 9 9 8 8 6 7 9 8 9 11 10 8 7 7 6
-0 17 3 7 -8 2 5 10 16 7 12 18 13 20 16 9 13 25 16 5 9 11 7 8 8 7 8 8 8 8 7 7 8 8 7 9 10 10 8 7 7 6 7 8
Height
3050 3054 3054 3059 3062 3063 3063 3062 3063 3064 3063 3059 3055 3050 3050 3050 3048 3047 3048 3050 3052 3053 3057 3058 3061 3065 3070 3073 3077 3081 3084 3089 3092 3094 3096 3098 3100 3100 3102 3104 3106 3107 3107 3107
3049 3047 3053 3057 3058 3058 3059 3059 3059 3059 3058 3054 3049 3035 3039 3039 3037 3038 3039 3040 3043 3045 3047 3050 3051 3054 3059 3062 3067 3071 3075 3079 3083 3086 3089 3090 3091 3093 3095 3098 3100 3100 3102 3102
3044 3047 3048 3051 3052 3054 3055 3055 3055 3055 3052 3050 3047 3028 3031 3028 3027 3029 3030 3030 3032 3034 3036 3039 3042 3044 3048 3051 3056 3060 3066 3070 3075 3078 3080 3081 3083 3087 3089 3092 3093 3095 3097 3098
3041 3046 3046 3048 3049 3052 3052 3053 3052 3052 3052 3050 3046 3032 3024 3025 3025 3024 3023 3025 3024 3025 3026 3027 3030 3033 3037 3041 3045 3049 3055 3060 3065 3069 3071 3074 3079 3080 3083 3085 3087 3089 3091 3092
3040 3040 3042 3044 3045 3048 3049 3048 3049 3049 3049 3046 3043 3048 3007 3018 3017 3017 3016 3018 3019 3019 3019 3019 3019 3021 3025 3030 3033 3037 3043 3050 3055 3060 3064 3068 3071 3072 3076 3078 3080 3081 3084 3086
3038 3037 3040 3041 3042 3043 3044 3045 3045 3046 3048 3041 3030 3034 3002 3013 3012 3012 3012 3014 3015 3014 3012 3010 3011 3012 3013 3018 3022 3024 3031 3038 3045 3051 3058 3061 3062 3065 3070 3072 3073 3075 3079 3080
3033 3033 3034 3036 3039 3040 3042 3044 3043 3043 3043 3030 3024 3024 3005 3006 3008 3007 3008 3009 3007 3005 3004 3003 3004 3004 3006 3008 3012 3013 3022 3028 3034 3043 3049 3054 3054 3060 3063 3065 3067 3070 3073 3075
3029 3031 3030 3029 3032 3037 3037 3041 3039 3031 3024 3019 3019 3010 3004 3002 3000 2998 2999 3000 3000 2998 2996 2994 2995 2996 2997 3000 3003 3006 3013 3020 3027 3034 3041 3045 3049 3054 3056 3059 3060 3064 3067 3070
3026 3027 3026 3028 3030 3034 3035 3035 3037 3036 3032 3027 3008 3001 2996 2996 2995 2992 2993 2993 2992 2992 2989 2988 2988 2988 2990 2992 2995 2999 3005 3013 3021 3027 3033 3037 3044 3046 3050 3053 3055 3059 3061 3065
3023 3025 3025 3026 3028 3029 3030 3033 3034 3034 3028 3012 2994 2989 2988 2991 2990 2988 2988 2986 2987 2984 2985 2982 2981 2982 2982 2985 2989 2994 2999 3006 3015 3021 3025 3032 3037 3041 3044 3047 3050 3054 3057 3058
3020 3023 3024 3023 3021 3023 3025 3026 3028 3028 3024 3011 2996 2975 2985 2984 2983 2983 2983 2982 2981 2979 2978 2976 2976 2975 2976 2979 2982 2987 2993 2999 3007 3013 3021 3027 3032 3035 3038 3041 3046 3049 3051 3054
3019 3021 3019 3017 3017 3019 3022 3020 3021 3020 3012 3008 3002 2973 2979 2980 2979 2979 2979 2979 2976 2972 2970 2969 2969 2970 2969 2973 2976 2982 2987 2995 3002 3009 3017 3022 3027 3030 3034 3037 3042 3044 3047 3048
3016 3017 3016 3013 3016 3016 3016 3014 3014 3009 3006 2995 2998 2971 2970 2974 2974 2974 2973 2973 2972 2967 2964 2964 2963 2964 2965 2968 2972 2976 2983 2991 2998 3007 3012 3017 3022 3026 3029 3033 3037 3039 3042 3043
3014 3014 3014 3011 3011 3013 3010 3007 3005 3003 2997 2986 2975 2964 2962 2968 2966 2966 2965 2964 2966 2963 2958 2957 2956 2958 2960 2964 2968 2973 2979 2989 2997 3003 3008 3013 3018 3022 3025 3028 3032 3034 3037 3039
3012 3010 3010 3006 3004 3003 2999 2996 2993 2990 2984 2979 2962 2965 2954 2958 2957 2956 2955 2956 2956 2954 2952 2951 2951 2953 2956 2960 2964 2970 2980 2988 2995 3000 3005 3010 3014 3018 3022 3025 3026 3030 3033 3035
3008 3007 3005 2999 2997 2997 2993 2989 2984 2979 2975 2969 2962 2953 2950 2946 2946 2947 2946 2948 2947 2948 2946 2944 2945 2949 2953 2958 2964 2971 2979 2986 2992 2996 3002 3007 3010 3015 3017 3022 3024 3026 3027 3028
3006 3005 3005 2996 2993 2988 2986 2983 2978 2974 2970 2965 2956 2951 2948 2944 2943 2941 2938 2937 2937 2938 2939 2939 2942 2945 2951 2957 2963 2971 2978 2985 2990 2995 2998 3003 3006 3007 3013 3014 3019 3021 3023 3024
3002 3003 3004 2996 2992 2987 2984 2980 2975 2971 2966 2961 2951 2945 2942 2939 2935 2933 2929 2926 2929 2930 2933 2936 2939 2944 2950 2957 2963 2970 2977 2984 2989 2993 2996 2996 3004 3006 3009 3014 3016 3018 3018 3017
2999 3002 3002 2999 2994 2985 2979 2977 2973 2968 2965 2959 2952 2946 2940 2936 2933 2930 2927 2925 2925 2927 2931 2935 2940 2946 2952 2958 2964 2970 2977 2983 2987 2991 2992 2989 3001 3003 3005 3009 3012 3014 3012 3011
2996 2999 3002 2999 2998 2987 2978 2976 2971 2967 2965 2962 2957 2951 2944 2940 2935 2932 2930 2928 2928 2930 2933 2939 2943 2948 2954 2960 2967 2972 2977 2982 2984 2984 2988 2995 2998 3000 3004 3008 3007 3006 3006 3004
2995 2996 2995 2997 2997 2985 2979 2976 2973 2970 2972 2963 2960 2957 2952 2946 2944 2941 2939 2938 2936 2938 2939 2944 2949 2954 2959 2964 2968 2969 2974 2978 2982 2986 2994 2998 2999 3001 3002 3002 3002 3002 3001 2999
2992 2993 2993 2994 2993 2986 2979 2977 2975 2972 2968 2964 2962 2960 2956 2954 2953 2950 2949 2949 2949 2950 2951 2952 2954 2957 2961 2966 2970 2975 2978 2982 2985 2990 2992 2995 2997 2998 2998 2999 2998 2997 2995 2993
2990 2989 2988 2988 2984 2982 2979 2975 2972 2969 2966 2962 2961 2962 2958 2959 2956 2958 2957 2957 2958 2958 2960 2962 2964 2966 2969 2972 2974 2978 2982 2985 2988 2991 2993 2994 2995 2996 2996 2995 2994 2992 2989 2987
2984 2984 2983 2984 2981 2979 2976 2973 2971 2969 2966 2962 2962 2962 2964 2963 2963 2963 2962 2963 2963 2963 2965 2967 2970 2972 2975 2978 2980 2982 2985 2987 2989 2991 2992 2993 2993 2993 2992 2991 2989 2986 2984 2980
2982 2980 2980 2979 2978 2977 2975 2973 2971 2969 2967 2965 2963 2964 2964 2965 2965 2966 2967 2967 2968 2970 2971 2972 2974 2976 2978 2980 2982 2983 2985 2987 2989 2990 2991 2991 2990 2989 2987 2985 2983 2980 2978 2974
2976 2977 2977 2978 2976 2975 2973 2971 2970 2968 2967 2966 2965 2966 2966 2966 2966 2966 2967 2969 2970 2972 2974 2975 2976 2978 2979 2981 2982 2984 2986 2987 2988 2988 2988 2987 2986 2984 2982 2981 2979 2976 2972 2968